Regional Weather Roundup
Issued by NWS

Home | Current Version | Previous Version | Graphics & Text | Print | Product List | Glossary On
Versions: 1 2 3 4 5 6 7 8 9 10 11 12 13 14 15 16 17 18 19 20 21 22 23 24 25 26 27 28 29 30 31 32 33 34 35 36 37 38 39 40 41 42 43 44 45 46 47 48 49 50
932
ASUS45 KBOU 060707
RWRCO

WEATHER ROUNDUP FOR COLORADO
NATIONAL WEATHER SERVICE DENVER/BOULDER CO
1200 AM MST SAT FEB 06 2016

NOTE: "FAIR" INDICATES FEW OR NO CLOUDS BELOW 12000 FEET WITH NO
SIGNIFICANT WEATHER AND/OR OBSTRUCTIONS TO VISIBILITY.

COZ001>005-013-030-031-060800-
...NORTHWEST COLORADO...

CITY           SKY/WX    TMP DP  RH WIND       PRES   REMARKS
CRAIG          CLOUDY    -7 -11  83 SW5       30.49F WCI -18
HAYDEN         CLOUDY    10   3  72 SE12      30.46S WCI  -4
MEEKER         CLOUDY     7   1  76 E8        30.49R WCI  -6
MOUNT WERNER   NOT AVBL
STEAMBOAT SPGS CLOUDY     8   5  86 CALM      30.47S
WALDEN         CLOUDY     1  -4  78 SE9       30.40S WCI -14
$$

COZ006>008-011-060800-
...WEST CENTRAL VALLEYS...

CITY           SKY/WX    TMP DP  RH WIND       PRES   REMARKS
GRAND JUNCTION CLOUDY     6   4  91 SE3       30.59R
MONTROSE       CLOUDY     8   2  76 SE7       30.57R WCI  -3
EAGLE          CLOUDY     3   1  92 E3        30.56R
RIFLE          CLOUDY     3  -1  83 SE3       30.57R
DELTA          CLOUDY    13   9  83 N3        30.58S
NUCLA          CLOUDY    14   5  67 E8        30.55S WCI   3
$$

COZ017>023-064>068-060800-
...SOUTHWEST COLORADO...

CITY           SKY/WX    TMP DP  RH WIND       PRES   REMARKS
DURANGO        CLOUDY     6   2  83 CALM      30.44R
CORTEZ         CLOUDY     8   3  80 NE9       30.48R WCI  -5
PAGOSA SPRINGS CLOUDY     3   0  89 CALM      30.42S
TELLURIDE      CLOUDY    11   2  66 SE7       30.44R WCI   0
WOLF CREEK PAS CLOUDY    12  -6  44 N5        30.38S WCI   4
$$

COZ009-010-012-014-032>034-037-058>063-060800-
...CENTRAL COLORADO...

CITY           SKY/WX    TMP DP  RH WIND       PRES   REMARKS
ASPEN          CLOUDY     5  -1  76 SW9       30.45F WCI  -9
BUENA VISTA    CLOUDY    14   0  52 W5        30.36R WCI   7
COPPER MTN     CLOUDY     9   1  72 W12       30.33S WCI  -6
BERTHOUD PASS  FAIR       1  -9  60 N21G31    30.28S WCI -20
COTTONWOOD PAS CLOUDY    21  -2  35 CALM      30.31R
GUNNISON       CLOUDY   -15 -26  58 E3        30.53S
KREMMLING      CLOUDY   N/A N/A N/A CALM      30.52R FOG
LEADVILLE      CLOUDY     2  -5  72 NE9       30.36F WCI -13
MONARCH PASS     N/A      5   3  92 MISG      30.41R
SALIDA         NOT AVBL
SUNLIGHT       CLOUDY    10   9  92 CALM        N/A
WILKERSON PASS CLOUDY    14   1  57 NW10G24   30.27R WCI   1
$$

COZ069>075-060800-
...SAN LUIS VALLEY/SANGRE DE CRISTO MOUNTAINS...

CITY           SKY/WX    TMP DP  RH WIND       PRES   REMARKS
ALAMOSA        CLOUDY    -3  -9  75 W6        30.41S WCI -15
LA VETA PASS   CLOUDY     9   0  66 MISG      30.28S
SAGUACHE       CLOUDY    14   3  62 NW23      30.40F WCI  -5
$$

COZ035-036-038>040-060800-
...NORTHERN COLORADO FRONT RANGE...

CITY           SKY/WX    TMP DP  RH WIND       PRES   REMARKS
DENVER INTL AP CLOUDY    21   6  52 SW12      30.23F WCI   9
DMNS CITY PARK   N/A     23   8  51 SE7G13    30.25S WCI  15
AURORA         CLEAR     19   6  55 S10       30.25F WCI   8
FRONT RANGE AP NOT AVBL
ERIE MUNI ARPT CLOUDY     8   5  89 CALM      30.25F
BOULDER MUN AP CLOUDY    21  10  63 CALM      30.24S
CENTENNIAL     CLOUDY    19   4  51 S7        30.24F WCI  10
BROOMFIELD     CLOUDY    28   7  40 CALM      30.23F
FORT COLLINS   CLOUDY    14   7  73 CALM      30.25F
LONGMONT       CLOUDY    11   4  72 W5        30.27S WCI   3
$$

COZ041-046-047-076>085-087-088-060800-
...PIKES PEAK/PALMER DIVIDE AND SOUTHERN FOOTHILLS...

CITY           SKY/WX    TMP DP  RH WIND       PRES   REMARKS
COLO. SPRINGS  CLOUDY     9   2  73 N5        30.29F WCI   1
A. F. ACADEMY  CLOUDY     3  -3  79 N9        30.27S WCI -12
SCHRIEVER AFB  FAIR      17   6  64 W6        30.29F WCI   8
ELLICOTT       NOT AVBL
FALCON         CLOUDY    15   6  69 W10       30.27F WCI   2
FORT CARSON    CLEAR      9   4  77 N13       30.28R WCI  -6
LIMON          CLOUDY    -3  -7  82 N9        30.28F WCI -19
MONUMENT HILL  CLOUDY    19   1  45 SW10      30.26S WCI   8
TRINIDAD       CLOUDY    18  11  74 W10       30.32S WCI   6
$$

COZ042>045-048>051-090-091-060800-
...NORTHEAST COLORADO...

CITY           SKY/WX    TMP DP  RH WIND       PRES   REMARKS
GREELEY ARPT   CLOUDY     3  -2  78 CALM      30.28S
AKRON          CLOUDY    16   7  67 SW15      30.26F WCI   1
BURLINGTON     CLOUDY    14   5  67 W13       30.29S WCI   0
WRAY           CLOUDY    19  11  73 W10       30.29S WCI   7
STERLING       CLOUDY    10   7  85 S7        30.28S WCI   0
HOLYOKE        CLOUDY    21  12  68 W12       30.28R WCI   9
FORT MORGAN    CLOUDY     9   3  77 W12       30.28F WCI  -6
$$

COZ086-089-092>099-060800-
...SOUTHEAST COLORADO...

CITY           SKY/WX    TMP DP  RH WIND       PRES   REMARKS
PUEBLO         CLOUDY    16  10  77 E3        30.33F
LA JUNTA       CLOUDY    18  11  74 W12       30.35S WCI   5
LAMAR          CLEAR     20  13  74 SW8       30.34S WCI  10
SPRINGFIELD      N/A     20  14  77 W10       30.32F WCI   9
$$




USA.gov is the U.S. government's official web portal to all federal, state and local government web resources and services.